Weather in Yesk

Russia / Krasnodar Krai     46°42′41″N   38°16′35″E
temp.,
°C
wind,
m/s
gust,
m/s
humid.,
%
clouds,
%
prec.,
mm/h
press.,
hPa
HPBL,
m
14 august, sun
sun1400:00+29ene1015460 0.0 1007317
03:00+27e915480 0.0 1007303
06:00+26e915460 0.0 1008384
09:00+29e913394 0.0 1008470
12:00+31ene811401 0.0 1007635
15:00+32e694011 0.0 1005690
18:00+32e573895 0.0 1004626
21:00+30e554495 0.0 100343
15 august, mon
mon1500:00+28ene465499 0.0 100364
03:00+29e71145100 0.0 1004208
06:00+27e9144579 0.0 1005365
09:00+29ese8104433 0.0 1005327
12:00+32ese68400 0.0 1005457
15:00+32e144343 0.0 1004545
18:00+28wnw4560100 0.0 100480
21:00+27wnw456985 0.0 100458
16 august, tue
tue1600:00+28ne5661100 0.0 100551
03:00+28ese71248100 0.3 1005204
06:00+24wnw1269100 1.8 1007293
09:00+26sse33662 1.9 1008337
12:00+27w67671 0.0 1010447
15:00+26wnw76690 0.0 1010516
18:00+26nw45730 0.0 1010186
21:00+25wsw56740 0.0 1010139
17 august, wed
wed1700:00+25w46780 0.0 1010231
03:00+25wnw34803 0.0 1010247
06:00+25wsw22793 0.0 1010148
09:00+26w337028 0.0 1010333
12:00+26nw55655 0.0 1010320
15:00+27wnw54623 0.0 1009227
18:00+27w55653 0.0 1009162
21:00+26wnw5672100 0.0 100893
18 august, thu
thu1800:00+26wnw5772100 0.0 1008123
03:00+26wnw56704 0.0 1008128
06:00+25wnw56700 0.0 1008136
09:00+26wnw55650 0.0 1008215
12:00+27w56640 0.0 1008281
15:00+27w776610 0.0 1007423
18:00+27wsw810668 0.0 1007261
21:00+26w58731 0.0 1007109